Regional Weather Roundup
Issued by NWS Upton, NY

Home | Current Version | Previous Version | Text Only | Print | Product List | Glossary On
Versions: 1 2 3 4 5 6 7 8 9 10 11 12 13 14 15 16 17 18 19 20 21 22 23 24 25 26 27 28 29 30 31 32 33 34 35 36 37 38 39 40 41 42 43 44 45 46 47 48 49 50
391
ASUS41 KOKX 100704
RWROKX

REGIONAL WEATHER ROUNDUP
NATIONAL WEATHER SERVICE NEW YORK NY
200 AM EST WED FEB 10 2016

NOTE: "FAIR" INDICATES FEW OR NO CLOUDS BELOW 12,000 FEET WITH NO
SIGNIFICANT WEATHER AND/OR OBSTRUCTIONS TO VISIBILITY.

NYZ071-072-176-178-NJZ106-104-100800-
NEW YORK CITY METRO AREA


CITY           SKY/WX    TMP DP  RH WIND       PRES   REMARKS
CENTRAL PARK   LGT SNOW  33  28  81 CALM      29.61S
LAGUARDIA APRT LGT SNOW  33  27  78 S5        29.59S WCI  29
KENNEDY INTL   LGT SNOW  32  29  88 CALM      29.61F FOG
NEWARK/LIBERTY FRZ DRZL  32  30  93 CALM      29.60S FOG
BRNX BOT. GARD   N/A     32  27  80 E1        29.61R
TETERBORO      FLURRIES  32  27  81 CALM      29.59S
$$

NYZ177-179-078>081-100800-
LONG ISLAND NEW YORK

CITY           SKY/WX    TMP DP  RH WIND       PRES   REMARKS
FARMINGDALE    CLOUDY    30  24  78 CALM      29.60F
ISLIP          CLOUDY    27  23  85 CALM      29.58S FOG
SHIRLEY        CLOUDY    26  24  92 CALM      29.61S
RIVERHEAD        N/A     27  21  80 CALM      29.58R
WESTHAMPTON    CLOUDY    24  22  91 CALM      29.62R
EAST HAMPTON   CLOUDY    24  23  95 CALM      29.60S
MONTAUK POINT    N/A     28  27  96 CALM      29.61S
$$

NYZ052-065-067-100800-
HUDSON VALLEY

CITY           SKY/WX    TMP DP  RH WIND       PRES   REMARKS
WHITE PLAINS   FLURRIES  28  24  85 CALM      29.57S
NEWBURGH       CLOUDY    30  28  93 CALM      29.56F
MONTGOMERY     MOCLDY    29  27  92 SW3       29.55F FOG
POUGHKEEPSIE   CLOUDY    30  26  85 SE3       29.57S
ALBANY         MOCLDY    24  21  88 CALM      29.55S
$$

NJZ001-105-106-008-010-013-015-019>022-104-100800-
NEW JERSEY

CITY           SKY/WX    TMP DP  RH WIND       PRES   REMARKS
NEWARK/LIBERTY FRZ DRZL  32  30  93 CALM      29.60S FOG
TETERBORO      FLURRIES  32  27  81 CALM      29.59S
CALDWELL       CLOUDY    31  28  89 CALM      29.59F FOG
MORRISTOWN     CLOUDY    30  28  93 CALM      29.60S FOG
SOMERVILLE     CLOUDY    31  29  92 CALM      29.59S FOG
SUSSEX         CLOUDY    30  28  92 CALM      29.56S FOG
ANDOVER          N/A     30  28  92 S3        29.56S
TRENTON        CLOUDY    32  30  92 SW3       29.59F FOG
MILLVILLE      CLOUDY    33  31  92 W9        29.63S WCI  25
ATLANTIC CITY  CLOUDY    33  31  92 W9        29.61F WCI  25
WRIGHTSTOWN    CLOUDY    32  32 100 SW2       29.58F
TOMS RIVER     CLOUDY    32  28  86 W6        29.61S WCI  26
BELMAR         CLOUDY    30  25  80 W5        29.60S WCI  25
$$

PAZ047>061-062-071-100800-
EASTERN PENNSYLVANIA

CITY           SKY/WX    TMP DP  RH WIND       PRES   REMARKS
PHILADELPHIA   CLOUDY    34  28  79 W9        29.63S WCI  27
ALLENTOWN      LGT SNOW  31  28  89 SW7       29.58S FOG     WCI  24
SCRANTON       LGT SNOW  30  28  92 SW6       29.54S FOG     WCI  24
$$

CTZ002-004>006-009-010-012-RIZ004-006-007-MAZ004-011-015-100800-
SOUTHERN NEW ENGLAND
 IN CT

CITY           SKY/WX    TMP DP  RH WIND       PRES   REMARKS
BRADLEY INTL   CLOUDY    21  18  88 CALM      29.58R
HARTFORD       CLOUDY    26  21  81 S5        29.60S WCI  20
DANBURY        CLOUDY    27  22  81 CALM      29.58F
WTRBRY/OXFORD  CLOUDY    25  16  68 CALM      29.57S
BRIDGEPORT     CLOUDY    29  25  85 CALM      29.60S
MERIDEN        CLOUDY    22  19  89 CALM      29.60S
NEW HAVEN      MOCLDY    24  21  88 CALM      29.60S
CHESTER        FAIR      27  23  86 CALM      29.59S
GROTON         PTCLDY    24  22  91 N3        29.60S
WILLIMANTIC    PTCLDY    16  12  84 CALM      29.60R

 IN RI

CITY           SKY/WX    TMP DP  RH WIND       PRES   REMARKS
PROVIDENCE     CLOUDY    20  17  88 CALM      29.61S
BLOCK ISLAND   CLOUDY    28  25  86 CALM      29.59S
WESTERLY       CLOUDY    23  21  92 CALM      29.61S

 IN MA

CITY           SKY/WX    TMP DP  RH WIND       PRES   REMARKS
BOSTON         CLEAR     24  18  77 CALM      29.61
WORCESTER      CLOUDY    19  15  84 SW5       29.53S WCI  12
WESTFIELD      CLOUDY    18  14  84 CALM      29.57S
PROVINCETOWN   CLOUDY    26  20  77 CALM      29.62R
NANTUCKET      CLOUDY    29  24  82 N5        29.60S WCI  24
$$

ANZ330-335-338-340-345-350-353-355-100800-
COASTAL MARINE OBSERVATIONS


STATION/POSITION TIME  SKY/WX   TEMP    WIND        PRES    VSBY  WAVE
                                AIR SEA DIR/SP/G                  HT/PER
                 (UTC)          (F)     (DEG/KT/KT) (MB)    (MI)  (FT/S)
NY HARB ENTRANCE 0550            34 43   80/  2/  4 1002.2          4/14
4S FIRE IS       NOT AVBL
20S FIRE ISLAND  0550            35 44   30/  4/  6 1002.1          5/ 8
GREAT SOUTH BAY  NOT AVBL
23SW MTP         0550            35 45  130/  4/  6 1002.0          5/14
HUDSON CANYON    0550            40 49              1001.5          5/11
KINGS POINT      0600            31 39  160/  2/  3 1001.9
EXECUTION ROCKS  NOT AVBL
CENTRAL LI SOUND 0600            33     190/  2/  4   N/A           0
EASTERN LI SOUND 0600            33 42   10/  6/  8   N/A
ROBBINS REEF     0600            33     250/  5/  6 1001.6
$$


>>>>>>>>>>>>>>>>>>>>>>>>>>>> KEY <<<<<<<<<<<<<<<<<<<<<<<<<<<
>                                                          <
>     SKY/WX - SKY CONDITION/PRESENT WEATHER               <
>     TMP    - TEMPERATURE IN FAHRENHEIT                   <
>     DP     - DEWPOINT IN FAHRENHEIT                      <
>     RH     - RELATIVE HUMIDITY IN PERCENT                <
>     WIND   - DIRECTION AND SPEED IN MPH                  <
>     PRES   - MEAN SEA LEVEL PRESSURE IN INCHES OF HG     <
>     WCI    - WIND CHILL INDEX                            <
>     VSB    - VISIBILITY IN MILES                         <
>     HX     - HEAT INDEX                                  <
>     TC     - TEMPERATURE IN CELSIUS                      <
>     VRB    - VARIABLE WIND DIRECTION                     <
>                                                          <
>>>>>>>>>>>>>>>>>>>>>>>>>>>> KEY <<<<<<<<<<<<<<<<<<<<<<<<<<<






USA.gov is the U.S. government's official web portal to all federal, state and local government web resources and services.